[[{"header":{"parameterUnit":"m.s-1","parameterCategory":1,"la1":30.2991,"la2":30.254,"lo1":-89.0895,"lo2":-89.0444,"dx":0.0017,"dy":0.0017,"nx":28,"ny":28,"refTime":"2022-11-29T09:00:00:Z","depth":0,"parameterNumber":2,"parameterNumberName":"U-component_of_WINDS"},"data":[0,0,0,0,0,0,0,0,0,0,0,0,0,0,0,0,0,0,0,0,0,0,0,0,0,0,0,0,0,0,0,0,0,0,0,0,0,0,0,0,0,0,0,0,0,0,0,0,0,0,0,0,0,0,0,0,0,0,-4.196,-4.1961,0,-4.205,-4.2051,-4.2052,-4.2023,-4.2021,-4.2019,-4.2017,-4.2109,-4.2113,-4.2118,0,0,0,0,0,0,0,0,0,0,0,0,0,-4.1762,-4.1766,-4.196,-4.1961,-4.1962,-4.205,-4.2051,-4.2053,-4.2023,-4.2021,-4.2018,-4.2016,-4.2108,-4.2113,-4.2118,0,0,0,0,0,0,0,0,0,0,0,0,0,-4.185,-4.1767,-4.196,-4.1958,-4.1959,-4.205,-4.2052,-4.2053,-4.2024,-4.2021,-4.2018,-4.2015,-4.2106,-4.2112,-4.2119,-4.2217,0,0,-4.2138,-4.2141,0,0,0,0,0,0,0,0,-4.1845,-4.1857,-4.1957,-4.1958,-4.1959,-4.2022,-4.2016,-4.2108,-4.2024,-4.1999,-4.2017,-4.2013,-4.2083,-4.2091,-4.2114,-4.2221,-4.2225,-4.2139,-4.2143,-4.2146,-4.2147,0,0,0,0,0,0,0,-4.1839,-4.1853,-4.1996,-4.1959,-4.196,-4.1953,-4.1962,-4.2033,-4.2056,-4.2001,-4.1999,-4.201,-4.2083,-4.2108,-4.2116,-4.2227,-4.2139,-4.2144,-4.2148,-4.2151,-4.2419,-4.2422,0,0,0,0,0,0,-4.1832,-4.1848,-4.1993,-4.1998,-4.1894,-4.1959,-4.1969,-4.2005,-4.2055,-4.206,-4.2012,-4.2008,-4.2099,-4.2109,-4.2119,-4.2236,-4.2146,-4.2152,-4.2155,-4.2416,-4.242,-4.2423,0,0,0,0,0,0,-4.1828,-4.1845,-4.1989,-4.1923,-4.1941,-4.1965,-4.2006,-4.2008,-4.2034,-4.2064,-4.2068,-4.2034,-4.2097,-4.211,-4.2193,-4.2239,-4.2154,-4.216,-4.2412,-4.2417,-4.2421,-4.2472,0,0,0,0,0,0,-4.1823,-4.1844,-4.1881,-4.1924,-4.1944,-4.2061,-4.2009,-4.2012,-4.2045,-4.204,-4.2085,-4.209,-4.2095,-4.2183,-4.2199,-4.2246,-4.2165,-4.2408,-4.2414,-4.242,-4.2466,-4.2478,-4.2488,0,0,0,0,0,-4.1816,-4.1892,-4.1883,-4.1901,-4.1991,-4.2064,-4.2075,-4.208,-4.2049,-4.2086,-4.2106,-4.2089,-4.2233,-4.2192,-4.221,-4.226,-4.2405,-4.2412,-4.2419,-4.2461,-4.2476,-4.2488,0,0,0,0,0,0,-4.1853,-4.1897,-4.1888,-4.1981,-4.2019,-4.2058,-4.2106,-4.2095,-4.2143,-4.2136,-4.2141,-4.2151,-4.2236,-4.2257,-4.2211,-4.2357,-4.2314,-4.2325,-4.234,-4.2354,-4.2365,-4.2356,-4.2171,0,0,0,0,0,-4.1873,-4.1928,-4.1963,-4.2042,-4.2061,-4.2081,-4.2112,-4.2113,-4.2152,-4.2168,-4.2194,-4.2233,-4.2287,-4.2322,-4.2374,-4.2471,-4.2479,-4.2514,-4.2525,-4.2534,-4.2542,-4.2594,-4.261,-4.2447,-4.2447,-4.2447,0,0,-4.1912,-4.1943,-4.1978,-4.205,-4.2079,-4.2136,-4.2094,-4.2156,-4.2198,-4.2178,-4.2256,-4.2277,-4.2321,-4.2411,-4.2452,-4.2431,-4.259,-4.2543,-4.255,-4.2554,-4.2603,-4.2619,-4.2632,-4.2452,-4.2451,-4.2451,0,0,-4.2013,-4.2043,-4.2111,-4.2142,-4.2187,-4.22,-4.2217,-4.2259,-4.2272,-4.2351,-4.2337,-4.2388,-4.2481,-4.2513,-4.2541,-4.2657,-4.2642,-4.2674,-4.273,-4.278,-4.2793,-4.2804,-4.2844,-4.2858,-4.2683,-4.2683,-4.2683,0,-4.2056,-4.2141,-4.2147,-4.221,-4.2242,-4.2228,-4.2296,-4.2326,-4.2386,-4.2409,-4.2385,-4.2502,-4.2531,-4.2627,-4.2655,-4.268,-4.2698,-4.2667,-4.2791,-4.2802,-4.2813,-4.285,-4.2865,-4.2687,-4.2686,-4.2686,-4.2686,0,-4.2191,-4.2251,-4.23,-4.2358,-4.2397,-4.2462,-4.2478,-4.2516,-4.2515,-4.253,-4.2612,-4.2647,-4.2704,-4.2728,-4.2727,-4.2826,-4.2811,-4.279,-4.2745,-4.2832,-4.2867,-4.2881,-4.2691,-4.269,-4.2689,-4.2688,0,0,-4.2314,-4.2377,-4.2395,-4.2421,-4.2472,-4.2517,-4.2583,-4.264,-4.2672,-4.2716,-4.277,-4.285,-4.2831,-4.2863,-4.2866,-4.2911,-4.2999,-4.2884,-4.2885,-4.2902,-4.3107,-4.3121,-4.3137,-4.2991,-4.2994,-4.2996,-4.3103,0,-4.2417,-4.2531,-4.254,-4.2643,-4.2697,-4.2686,-4.2744,-4.2781,-4.2798,-4.2847,-4.2867,-4.2922,-4.2894,-4.2913,-4.2958,-4.2979,-4.304,-4.2972,-4.304,-4.3043,-4.3026,-4.3156,-4.317,-4.3269,-4.3117,-4.3119,-4.3121,0,-4.2551,-4.2598,-4.2706,-4.275,-4.2773,-4.2824,-4.2877,-4.2925,-4.2968,-4.2977,-4.3015,-4.3012,-4.308,-4.3036,-4.3129,-4.3083,-4.3112,-4.3127,-4.3131,-4.3135,-4.3084,-4.316,-4.33,-4.3314,-4.3143,-4.3141,-4.314,0,-4.2626,-4.2717,-4.2794,-4.2817,-4.2871,-4.2907,-4.2931,-4.2971,-4.3005,-4.3052,-4.3074,-4.3129,-4.3158,-4.3201,-4.3213,-4.3181,-4.3306,-4.3263,-4.3314,-4.3314,-4.3337,-4.3335,-4.3481,-4.3362,-4.3362,-4.3362,-4.3361,0,-4.2737,-4.2804,-4.2828,-4.2875,-4.2949,-4.296,-4.3033,-4.3055,-4.3091,-4.3142,-4.3138,-4.3186,-4.3201,-4.3252,-4.3262,-4.3337,-4.3351,-4.336,-4.3361,-4.3358,-4.3356,-4.3374,-4.3367,-4.3366,-4.3365,-4.3364,-4.3363,0,-4.2832,-4.2852,-4.2934,-4.2979,-4.2992,-4.3044,-4.3082,-4.3128,-4.3145,-4.321,-4.3226,-4.3253,-4.3313,-4.3331,-4.3403,-4.341,-4.3497,-4.3494,-4.3482,-4.3481,-4.353,-4.3524,-4.3689,-4.3711,-4.3581,-4.3582,-4.3583,0,-4.29,-4.2951,-4.3001,-4.3035,-4.3061,-4.3116,-4.315,-4.3164,-4.3201,-4.3254,-4.3293,-4.3353,-4.34,-4.3496,-4.3523,-4.3578,-4.3574,-4.3629,-4.3582,-4.3577,-4.3572,-4.3567,-4.3571,-4.3636,-4.3637,-4.3638,-4.3639,0,-4.3018,-4.3025,-4.3076,-4.313,-4.3172,-4.3216,-4.3258,-4.3286,-4.3306,-4.3348,-4.3409,-4.3446,-4.352,-4.3578,-4.3635,-4.366,-4.3653,-4.3655,-4.3669,-4.3664,-4.3654,-4.3658,-4.3502,-4.365,-4.3649,-4.3648,-4.3647,-4.3647,-4.3099,-4.3143,-4.3186,-4.3243,-4.3276,-4.3316,-4.336,-4.3385,-4.3436,-4.3497,-4.3503,-4.3568,-4.3611,-4.3687,-4.3715,-4.3767,-4.3751,-4.3772,-4.3777,-4.3781,-4.3783,-4.3649,-4.3778,-4.3777,-4.3777,-4.3777,-4.3777,0,-4.3214,-4.3241,-4.3294,-4.3353,-4.3398,-4.3389,-4.3436,-4.3473,-4.3531,-4.3573,-4.362,-4.3691,-4.3748,-4.3781,-4.3838,-4.3873,-4.3871,-4.3888,-4.3883,-4.3889,-4.3796,-4.3776,-4.3888,-4.3888,-4.3888,-4.3888,-4.3888,-4.3888,-4.3278,-4.3352,-4.3366,-4.3457,-4.3484,-4.3549,-4.3576,-4.3613,-4.3645,-4.3724,-4.3772,-4.3794,-4.3831,-4.3892,-4.3944,-4.3952,-4.3972,-4.399,-4.3996,-4.3907,-4.3895,-4.3884,-4.3866,-4.3995,-4.3995,-4.4084,-4.4085,-4.4086]},{"header":{"parameterUnit":"m.s-1","parameterCategory":1,"la1":30.2991,"la2":30.254,"lo1":-89.0895,"lo2":-89.0444,"dx":0.0017,"dy":0.0017,"nx":28,"ny":28,"refTime":"2022-11-29T09:00:00:Z","depth":0,"parameterNumber":3,"parameterNumberName":"V-component_of_WINDS"},"data":[0,0,0,0,0,0,0,0,0,0,0,0,0,0,0,0,0,0,0,0,0,0,0,0,0,0,0,0,0,0,0,0,0,0,0,0,0,0,0,0,0,0,0,0,0,0,0,0,0,0,0,0,0,0,0,0,0,0,1.7937,1.7937,0,1.7971,1.7971,1.7972,1.7965,1.7964,1.7964,1.7963,1.7999,1.8,1.8002,0,0,0,0,0,0,0,0,0,0,0,0,0,1.7869,1.787,1.7937,1.7937,1.7938,1.7971,1.7971,1.7972,1.7965,1.7964,1.7964,1.7963,1.7998,1.8,1.8002,0,0,0,0,0,0,0,0,0,0,0,0,0,1.79,1.7871,1.7937,1.7938,1.7939,1.7971,1.7971,1.7972,1.7965,1.7964,1.7963,1.7963,1.7998,1.8,1.8002,1.8035,0,0,1.8009,1.801,0,0,0,0,0,0,0,0,1.7898,1.7903,1.7938,1.7938,1.7939,1.7963,1.796,1.7993,1.7966,1.7955,1.7963,1.7962,1.7988,1.7991,1.7999,1.8037,1.8038,1.8009,1.8011,1.8012,1.8012,0,0,0,0,0,0,0,1.7896,1.7901,1.795,1.7938,1.7939,1.7938,1.7942,1.7967,1.7976,1.7956,1.7956,1.796,1.7988,1.7997,1.8,1.8039,1.8009,1.8011,1.8013,1.8014,1.8108,1.8109,0,0,0,0,0,0,1.7893,1.7899,1.7949,1.7951,1.7916,1.794,1.7944,1.7956,1.7976,1.7978,1.7961,1.7959,1.7994,1.7997,1.8001,1.8042,1.8012,1.8014,1.8015,1.8107,1.8108,1.8109,0,0,0,0,0,0,1.7892,1.7898,1.7948,1.7925,1.7932,1.7942,1.7956,1.7957,1.7966,1.7979,1.7981,1.7968,1.7993,1.7998,1.8027,1.8043,1.8015,1.8017,1.8105,1.8107,1.8109,1.8124,0,0,0,0,0,0,1.789,1.7897,1.7909,1.7926,1.7933,1.7972,1.7957,1.7959,1.797,1.7969,1.7987,1.7989,1.7993,1.8024,1.8029,1.8046,1.8019,1.8104,1.8106,1.8108,1.8122,1.8126,1.8129,0,0,0,0,0,1.7887,1.7911,1.7909,1.7915,1.7947,1.7973,1.7977,1.7981,1.7971,1.7984,1.7993,1.7988,1.8041,1.8027,1.8033,1.8051,1.8103,1.8105,1.8108,1.812,1.8125,1.8129,0,0,0,0,0,0,1.7895,1.7913,1.7911,1.7941,1.7956,1.7972,1.7987,1.7986,1.8003,1.8001,1.8006,1.801,1.804,1.8048,1.8032,1.8085,1.8071,1.8075,1.8078,1.8083,1.8086,1.8083,1.8021,0,0,0,0,0,1.7901,1.7919,1.7934,1.7959,1.7967,1.7976,1.7987,1.7989,1.8005,1.8011,1.8022,1.8037,1.8058,1.8071,1.809,1.8124,1.8129,1.8139,1.8143,1.8146,1.8149,1.817,1.8175,1.8118,1.8118,1.8118,0,0,1.7911,1.7924,1.7935,1.7961,1.7973,1.7993,1.7981,1.8003,1.8018,1.8014,1.8042,1.8052,1.8069,1.8102,1.8116,1.811,1.8166,1.8149,1.8151,1.8153,1.8173,1.8179,1.8183,1.8119,1.8119,1.8119,0,0,1.7942,1.7952,1.7975,1.7988,1.8006,1.8012,1.8018,1.8035,1.8041,1.807,1.8068,1.8088,1.8122,1.8135,1.8147,1.8186,1.8183,1.8193,1.8211,1.8232,1.8236,1.824,1.8256,1.8261,1.8196,1.8196,1.8196,0,1.7953,1.7983,1.7987,1.801,1.8023,1.8021,1.8045,1.8057,1.808,1.809,1.8082,1.8127,1.8139,1.8175,1.8185,1.8194,1.8202,1.819,1.8235,1.8239,1.8243,1.8258,1.8264,1.8197,1.8197,1.8197,1.8197,0,1.7997,1.8018,1.8035,1.8058,1.8073,1.8096,1.8105,1.812,1.8121,1.8129,1.816,1.8175,1.8198,1.8207,1.8208,1.8245,1.824,1.8234,1.822,1.825,1.8264,1.8269,1.8198,1.8198,1.8198,1.8198,0,0,1.803,1.8058,1.8064,1.8076,1.8098,1.8115,1.8139,1.8162,1.8176,1.8193,1.8214,1.8245,1.824,1.8253,1.8257,1.8275,1.8307,1.8266,1.8267,1.8274,1.835,1.8355,1.8361,1.8306,1.8307,1.8308,1.8349,0,1.8063,1.8106,1.8112,1.815,1.8171,1.8171,1.8193,1.821,1.8218,1.8238,1.8249,1.8271,1.8262,1.827,1.8288,1.8299,1.8323,1.8296,1.8327,1.8328,1.8322,1.8369,1.8373,1.8411,1.8355,1.8355,1.8356,0,1.8107,1.8126,1.8166,1.8188,1.8197,1.8216,1.8239,1.8258,1.8278,1.8283,1.8299,1.8301,1.8329,1.8314,1.8353,1.8335,1.8348,1.8356,1.8358,1.836,1.8344,1.8373,1.8423,1.8429,1.8365,1.8364,1.8363,0,1.8129,1.8165,1.8194,1.8204,1.8229,1.8243,1.8255,1.8273,1.8288,1.8309,1.8319,1.8342,1.8355,1.8375,1.8384,1.8372,1.8422,1.8408,1.8429,1.8429,1.8439,1.8438,1.8492,1.8447,1.8447,1.8447,1.8447,0,1.8165,1.8189,1.8205,1.8223,1.8252,1.826,1.8289,1.83,1.8317,1.8338,1.834,1.8361,1.8371,1.8394,1.8401,1.8433,1.8439,1.8445,1.8447,1.8445,1.8444,1.8453,1.8451,1.8448,1.8448,1.8448,1.8447,0,1.8193,1.8204,1.8237,1.8259,1.8265,1.8286,1.8305,1.8324,1.8334,1.8361,1.8368,1.8384,1.8411,1.8422,1.8454,1.846,1.8497,1.8496,1.849,1.8491,1.8511,1.8509,1.8573,1.8583,1.8531,1.8531,1.8532,0,1.8215,1.8235,1.826,1.8274,1.8286,1.831,1.8325,1.8335,1.8351,1.8377,1.8393,1.842,1.8441,1.8485,1.85,1.8526,1.8526,1.8547,1.853,1.8528,1.8528,1.8526,1.8529,1.855,1.855,1.8551,1.8551,0,1.8254,1.826,1.8281,1.8306,1.8325,1.8345,1.8364,1.8376,1.839,1.8408,1.8436,1.8453,1.8488,1.8515,1.8542,1.8555,1.8556,1.8557,1.8563,1.8561,1.8557,1.8561,1.8499,1.8555,1.8554,1.8554,1.8554,1.8554,1.8281,1.8299,1.832,1.8345,1.8362,1.8381,1.84,1.8413,1.8436,1.8465,1.847,1.85,1.8522,1.8559,1.8573,1.8598,1.8593,1.8602,1.8604,1.8606,1.8608,1.8553,1.8603,1.8603,1.8603,1.8603,1.8603,0,1.8321,1.8335,1.8358,1.8386,1.8407,1.8406,1.8429,1.8446,1.8473,1.8493,1.8515,1.8549,1.8576,1.8595,1.8623,1.8639,1.864,1.8646,1.8645,1.8649,1.861,1.8603,1.8645,1.8645,1.8645,1.8645,1.8645,1.8645,1.8344,1.8375,1.8384,1.8424,1.8439,1.8468,1.8481,1.85,1.8516,1.8553,1.8576,1.8588,1.8609,1.8639,1.8665,1.867,1.868,1.8687,1.8692,1.8655,1.8651,1.8647,1.8639,1.8689,1.8689,1.8728,1.8728,1.8728]}]]